Location: McKinley Crossing
(64.8808°N, 149.6453°W)
Time: 22:08:19
(UTC+00:00)

N. Korean satellite - Visible Passes

Search period start: 22 January 2021 00:00
Search period end: 01 February 2021 00:00
Orbit: 452 x 502 km, 97.2° (Epoch: 22 January)

Date Brightness Start Highest point End Pass type
(mag) Time Alt. Az. Time Alt. Az. Time Alt. Az.
22 Jan 7.9 02:39:32 10° S 02:43:05 45° W 02:46:36 10° NNW visible
22 Jan 10.3 04:16:59 10° W 04:17:19 10° WNW 04:17:39 10° WNW visible
22 Jan 7.7 15:26:33 10° NNE 15:29:59 44° E 15:33:20 10° S visible
22 Jan 7.1 17:00:01 10° N 17:03:17 36° WNW 17:06:31 10° SW visible
23 Jan 6.9 02:12:46 10° SSE 02:16:25 73° WSW 02:20:03 10° NNW visible
23 Jan 9.8 03:48:08 10° WSW 03:50:22 15° W 03:52:37 10° NW visible
23 Jan 8.6 15:00:08 10° NNE 15:03:14 27° E 15:06:16 10° SSE visible
23 Jan 6.5 16:33:19 10° NNE 16:36:49 55° WNW 16:40:13 10° SW visible
23 Jan 8.2 18:07:20 10° N 18:09:30 15° NW 18:11:38 10° W visible
24 Jan 9.3 03:20:33 10° SW 03:23:31 23° W 03:26:28 10° NW visible
24 Jan 9.4 14:33:53 10° NE 14:36:23 18° E 14:38:52 10° SE visible
24 Jan 6.4 16:06:41 10° NNE 16:10:14 88° WNW 16:13:43 10° SSW visible
24 Jan 7.8 17:40:28 10° N 17:43:10 21° NW 17:45:50 10° W visible
25 Jan 8.4 02:53:21 10° SSW 02:56:44 35° W 03:00:05 10° NNW visible
25 Jan 9.9 14:08:07 10° ENE 14:09:28 12° E 14:10:48 10° ESE visible
25 Jan 7.1 15:40:06 10° NNE 15:43:36 56° ESE 15:47:01 10° S visible
25 Jan 7.3 17:13:40 10° N 17:16:46 29° NW 17:19:49 10° WSW visible
26 Jan 7.4 02:26:26 10° S 02:30:01 56° WSW 02:33:34 10° NNW visible
26 Jan 10.0 04:02:33 10° WSW 04:04:07 12° W 04:05:41 10° NW visible
26 Jan 8.2 15:13:37 10° NNE 15:16:53 34° E 15:20:04 10° SSE visible
26 Jan 6.8 16:46:57 10° N 16:50:19 43° WNW 16:53:37 10° SW visible
27 Jan 9.6 03:34:35 10° SW 03:37:12 19° W 03:39:48 10° NW visible
27 Jan 9.0 14:47:15 10° NE 14:50:03 22° E 14:52:50 10° SE visible
27 Jan 6.3 16:20:16 10° NNE 16:23:46 69° WNW 16:27:12 10° SSW visible
27 Jan 8.0 17:54:11 10° N 17:56:35 18° NW 17:58:58 10° W visible
28 Jan 8.9 03:07:12 10° SSW 03:10:22 28° W 03:13:31 10° NNW visible
28 Jan 9.7 14:21:09 10° NE 14:23:10 15° E 14:25:10 10° ESE visible
28 Jan 6.6 15:53:38 10° NNE 15:57:10 73° ESE 16:00:36 10° SSW visible
28 Jan 7.6 17:27:19 10° N 17:30:13 24° NW 17:33:03 10° WSW visible
29 Jan 7.9 02:40:09 10° S 02:43:36 44° W 02:47:03 10° NNW visible
29 Jan 7.6 15:27:06 10° NNE 15:30:28 44° E 15:33:47 10° S visible
29 Jan 7.1 17:00:33 10° N 17:03:46 35° WNW 17:06:56 10° SW visible
30 Jan 9.8 03:48:46 10° WSW 03:50:53 15° W 03:53:00 10° NW visible
30 Jan 8.6 15:00:38 10° NNE 15:03:41 27° E 15:06:41 10° SSE visible
30 Jan 6.5 16:33:50 10° NNE 16:37:15 54° WNW 16:40:37 10° SW visible
31 Jan 9.3 03:21:07 10° SW 03:24:00 22° W 03:26:51 10° NW visible
31 Jan 9.4 14:34:22 10° NE 14:36:50 18° E 14:39:16 10° SE visible
31 Jan 6.4 16:07:10 10° NNE 16:10:40 87° WNW 16:14:06 10° SSW visible
31 Jan 7.8 17:40:58 10° N 17:43:36 20° NW 17:46:12 10° W visible
